[[{"header":{"parameterUnit":"m.s-1","parameterCategory":1,"la1":30.2991,"la2":30.254,"lo1":-89.0895,"lo2":-89.0444,"dy":0.0017,"dx":0.0017,"nx":28,"ny":28,"refTime":"2023-10-29T21:00:00:Z","depth":0,"parameterNumber":2,"parameterNumberName":"U-component_of_WINDS"},"data":[0,0,0,0,0,0,0,0,0,0,0,0,0,0,0,0,0,0,0,0,0,0,0,0,0,0,0,0,0,0,0,0,0,0,0,0,0,0,0,0,0,0,0,0,0,0,0,0,0,0,0,0,0,0,0,0,0,0,0.8524,0.8524,0,0.8542,0.8543,0.8543,0.8535,0.8534,0.8534,0.8533,0.8552,0.8553,0.8554,0,0,0,0,0,0,0,0,0,0,0,0,0,0.8483,0.8484,0.8524,0.8524,0.8524,0.8542,0.8543,0.8543,0.8535,0.8534,0.8534,0.8533,0.8552,0.8553,0.8554,0,0,0,0,0,0,0,0,0,0,0,0,0,0.8501,0.8484,0.8524,0.8523,0.8523,0.8542,0.8543,0.8543,0.8535,0.8534,0.8534,0.8533,0.8551,0.8553,0.8554,0.8576,0,0,0.8558,0.8559,0,0,0,0,0,0,0,0,0.85,0.8502,0.8523,0.8523,0.8523,0.8536,0.8535,0.8554,0.8535,0.853,0.8533,0.8533,0.8547,0.8549,0.8554,0.8577,0.8578,0.8558,0.8559,0.856,0.856,0,0,0,0,0,0,0,0.8499,0.8502,0.8531,0.8523,0.8523,0.8521,0.8523,0.8538,0.8542,0.8531,0.853,0.8532,0.8547,0.8552,0.8554,0.8578,0.8558,0.856,0.856,0.8561,0.8621,0.8622,0,0,0,0,0,0,0.8497,0.8501,0.8531,0.8532,0.8509,0.8523,0.8525,0.8532,0.8542,0.8543,0.8533,0.8532,0.855,0.8552,0.8555,0.8582,0.856,0.8561,0.8562,0.8621,0.8622,0.8622,0,0,0,0,0,0,0.8496,0.85,0.853,0.8516,0.852,0.8524,0.8533,0.8533,0.8538,0.8544,0.8544,0.8538,0.855,0.8553,0.8571,0.8582,0.8562,0.8563,0.862,0.8621,0.8622,0.8635,0,0,0,0,0,0,0.8495,0.85,0.8508,0.8516,0.852,0.8546,0.8533,0.8534,0.8541,0.8539,0.8548,0.8549,0.855,0.8569,0.8572,0.8584,0.8564,0.8619,0.862,0.8622,0.8634,0.8637,0.8639,0,0,0,0,0,0.8494,0.851,0.8508,0.8512,0.8531,0.8546,0.8549,0.8549,0.8541,0.855,0.8554,0.8549,0.8581,0.8571,0.8575,0.8587,0.8618,0.862,0.8622,0.8633,0.8636,0.8639,0,0,0,0,0,0,0.8503,0.8511,0.8509,0.8529,0.8537,0.8545,0.8555,0.8552,0.8563,0.8561,0.8561,0.8563,0.8582,0.8586,0.8575,0.8609,0.8598,0.8601,0.8606,0.8609,0.8612,0.861,0.8565,0,0,0,0,0,0.8507,0.8519,0.8526,0.8543,0.8547,0.8551,0.8557,0.8557,0.8565,0.8569,0.8574,0.8582,0.8594,0.8602,0.8613,0.8635,0.8637,0.8645,0.8648,0.865,0.8652,0.8665,0.8669,0.8628,0.8628,0.8628,0,0,0.8516,0.8522,0.8529,0.8545,0.8551,0.8564,0.8553,0.8567,0.8576,0.8571,0.8588,0.8593,0.8602,0.8623,0.8632,0.8627,0.8664,0.8652,0.8654,0.8655,0.8668,0.8671,0.8675,0.8629,0.8629,0.8629,0,0,0.8538,0.8544,0.8559,0.8566,0.8576,0.8578,0.8582,0.8591,0.8594,0.8612,0.8608,0.862,0.864,0.8647,0.8653,0.8681,0.8677,0.8685,0.8699,0.8711,0.8715,0.8717,0.8728,0.8732,0.8687,0.8687,0.8687,0,0.8548,0.8567,0.8567,0.8582,0.8589,0.8585,0.8601,0.8607,0.862,0.8625,0.862,0.8646,0.8652,0.8675,0.8682,0.8687,0.8691,0.8683,0.8714,0.8717,0.872,0.873,0.8734,0.8688,0.8688,0.8688,0.8687,0,0.8578,0.8592,0.8603,0.8616,0.8625,0.864,0.8643,0.8652,0.8651,0.8655,0.8674,0.8681,0.8694,0.87,0.8699,0.8723,0.872,0.8714,0.8703,0.8724,0.8734,0.8738,0.8689,0.8689,0.8688,0.8688,0,0,0.8605,0.862,0.8624,0.8631,0.8642,0.8653,0.8668,0.8681,0.8689,0.8699,0.8712,0.873,0.8726,0.8733,0.8733,0.8745,0.8767,0.8738,0.8738,0.8743,0.8795,0.8799,0.8804,0.8765,0.8766,0.8766,0.8795,0,0.8629,0.8656,0.8658,0.8682,0.8695,0.8693,0.8706,0.8715,0.8719,0.8731,0.8736,0.8749,0.8741,0.8746,0.8757,0.8762,0.8778,0.876,0.8778,0.8778,0.8775,0.8808,0.8813,0.8839,0.8798,0.8799,0.8799,0,0.866,0.8671,0.8697,0.8708,0.8714,0.8726,0.8739,0.875,0.8761,0.8763,0.8772,0.8771,0.8788,0.8777,0.88,0.8788,0.8796,0.88,0.8801,0.8803,0.879,0.8811,0.8847,0.8851,0.8805,0.8804,0.8804,0,0.8678,0.8699,0.8718,0.8724,0.8737,0.8746,0.8752,0.8761,0.877,0.8782,0.8787,0.8801,0.8808,0.8819,0.8822,0.8814,0.8846,0.8835,0.8849,0.8849,0.8855,0.8855,0.8893,0.886,0.886,0.886,0.886,0,0.8704,0.872,0.8726,0.8738,0.8756,0.8759,0.8777,0.8782,0.8792,0.8805,0.8803,0.8816,0.8819,0.8832,0.8835,0.8855,0.8858,0.8861,0.8861,0.8861,0.886,0.8865,0.8864,0.8861,0.8861,0.8861,0.886,0,0.8726,0.8731,0.8752,0.8763,0.8766,0.878,0.8789,0.8801,0.8805,0.8822,0.8826,0.8833,0.8849,0.8853,0.8872,0.8874,0.8897,0.8896,0.8893,0.8894,0.8907,0.8906,0.895,0.8956,0.8919,0.892,0.892,0,0.8743,0.8755,0.8768,0.8777,0.8784,0.8798,0.8807,0.881,0.882,0.8834,0.8844,0.8859,0.8872,0.8897,0.8904,0.8919,0.8918,0.8933,0.892,0.892,0.8919,0.8918,0.892,0.8935,0.8935,0.8935,0.8936,0,0.8771,0.8774,0.8787,0.8801,0.8812,0.8823,0.8834,0.8842,0.8847,0.8858,0.8874,0.8884,0.8904,0.8919,0.8935,0.8941,0.894,0.894,0.8944,0.8943,0.8942,0.8944,0.89,0.8938,0.8938,0.8938,0.8938,0.8938,0.8792,0.8803,0.8815,0.883,0.8838,0.8849,0.8861,0.8867,0.8881,0.8897,0.8899,0.8917,0.8929,0.8949,0.8957,0.8971,0.8967,0.8973,0.8974,0.8975,0.8977,0.894,0.8974,0.8974,0.8974,0.8974,0.8974,0,0.8821,0.8828,0.8842,0.8858,0.887,0.8868,0.8881,0.8891,0.8907,0.8918,0.8931,0.895,0.8966,0.8975,0.8991,0.9001,0.9001,0.9005,0.9004,0.9006,0.8979,0.8975,0.9005,0.9005,0.9005,0.9005,0.9005,0.9005,0.8837,0.8857,0.8861,0.8885,0.8893,0.8911,0.8918,0.8928,0.8938,0.8959,0.8973,0.8979,0.8989,0.9006,0.9021,0.9024,0.903,0.9035,0.9037,0.9011,0.9008,0.9005,0.9,0.9036,0.9036,0.9062,0.9063,0.9063]},{"header":{"parameterUnit":"m.s-1","parameterCategory":1,"la1":30.2991,"la2":30.254,"lo1":-89.0895,"lo2":-89.0444,"dy":0.0017,"dx":0.0017,"nx":28,"ny":28,"refTime":"2023-10-29T21:00:00:Z","depth":0,"parameterNumber":3,"parameterNumberName":"V-component_of_WINDS"},"data":[0,0,0,0,0,0,0,0,0,0,0,0,0,0,0,0,0,0,0,0,0,0,0,0,0,0,0,0,0,0,0,0,0,0,0,0,0,0,0,0,0,0,0,0,0,0,0,0,0,0,0,0,0,0,0,0,0,0,-8.5848,-8.5849,0,-8.5977,-8.5978,-8.5979,-8.5916,-8.5913,-8.5909,-8.5906,-8.603,-8.6037,-8.6043,0,0,0,0,0,0,0,0,0,0,0,0,0,-8.554,-8.5546,-8.5848,-8.5849,-8.5851,-8.5976,-8.5978,-8.598,-8.5917,-8.5913,-8.5909,-8.5905,-8.6028,-8.6036,-8.6043,0,0,0,0,0,0,0,0,0,0,0,0,0,-8.5671,-8.5548,-8.5847,-8.5835,-8.5835,-8.5976,-8.5978,-8.598,-8.5917,-8.5912,-8.5907,-8.5903,-8.6026,-8.6035,-8.6045,-8.6203,0,0,-8.6074,-8.6078,0,0,0,0,0,0,0,0,-8.5664,-8.5683,-8.5835,-8.5836,-8.5836,-8.5925,-8.5915,-8.6055,-8.5919,-8.5886,-8.5906,-8.59,-8.5999,-8.601,-8.6045,-8.6209,-8.6214,-8.6075,-8.608,-8.6085,-8.6087,0,0,0,0,0,0,0,-8.5655,-8.5677,-8.5898,-8.5837,-8.5838,-8.582,-8.5833,-8.5941,-8.5968,-8.5888,-8.5884,-8.5901,-8.5998,-8.6036,-8.6048,-8.6216,-8.6074,-8.6083,-8.6089,-8.6093,-8.6517,-8.6522,0,0,0,0,0,0,-8.5647,-8.5669,-8.5894,-8.5902,-8.5736,-8.583,-8.5845,-8.5902,-8.5967,-8.5972,-8.5905,-8.5897,-8.6022,-8.6037,-8.6052,-8.6242,-8.6085,-8.6094,-8.6099,-8.6512,-8.6518,-8.6524,0,0,0,0,0,0,-8.5641,-8.5668,-8.5889,-8.5785,-8.5812,-8.584,-8.5905,-8.5907,-8.5945,-8.598,-8.5983,-8.5939,-8.6019,-8.6038,-8.6167,-8.6246,-8.6098,-8.6107,-8.6505,-8.6514,-8.6521,-8.6625,0,0,0,0,0,0,-8.5632,-8.5666,-8.5728,-8.5787,-8.5818,-8.6004,-8.591,-8.5913,-8.5962,-8.5954,-8.6013,-8.6018,-8.6016,-8.6153,-8.6176,-8.6256,-8.6114,-8.6498,-8.6509,-8.6519,-8.6614,-8.6635,-8.6654,0,0,0,0,0,-8.5622,-8.575,-8.5732,-8.5759,-8.5896,-8.6009,-8.6026,-8.6025,-8.5969,-8.6031,-8.6053,-8.6016,-8.6234,-8.6167,-8.6192,-8.6276,-8.6493,-8.6506,-8.6518,-8.6605,-8.6631,-8.6653,0,0,0,0,0,0,-8.5697,-8.5758,-8.5738,-8.589,-8.5945,-8.5998,-8.6076,-8.6052,-8.6122,-8.611,-8.6103,-8.6117,-8.625,-8.6276,-8.62,-8.6434,-8.6354,-8.6373,-8.6412,-8.6437,-8.6456,-8.6447,-8.6122,0,0,0,0,0,-8.5732,-8.5821,-8.5868,-8.5997,-8.6026,-8.6047,-8.6096,-8.609,-8.6146,-8.6168,-8.62,-8.6253,-8.6334,-8.6387,-8.6463,-8.6618,-8.6629,-8.6688,-8.6708,-8.6724,-8.674,-8.6824,-8.685,-8.6565,-8.6565,-8.6565,0,0,-8.5803,-8.5848,-8.5903,-8.6014,-8.6056,-8.6146,-8.6067,-8.6165,-8.6231,-8.6182,-8.6306,-8.6332,-8.6391,-8.6534,-8.6598,-8.6559,-8.6821,-8.674,-8.6752,-8.6759,-8.6839,-8.6866,-8.689,-8.6573,-8.6572,-8.6571,0,0,-8.598,-8.6023,-8.6136,-8.6181,-8.6247,-8.626,-8.6288,-8.6345,-8.6361,-8.6487,-8.6452,-8.6529,-8.6668,-8.6712,-8.6752,-8.6948,-8.6916,-8.6973,-8.7075,-8.7157,-8.7179,-8.7199,-8.7269,-8.7294,-8.6988,-8.6988,-8.6989,0,-8.606,-8.6198,-8.6196,-8.6299,-8.6348,-8.6311,-8.6425,-8.6467,-8.6553,-8.6587,-8.6543,-8.6718,-8.6755,-8.6908,-8.6956,-8.699,-8.7019,-8.6965,-8.7177,-8.7197,-8.7215,-8.7281,-8.7308,-8.6995,-8.6994,-8.6993,-8.6993,0,-8.6293,-8.6388,-8.6471,-8.656,-8.6618,-8.6725,-8.6739,-8.6797,-8.6787,-8.6804,-8.6932,-8.6975,-8.706,-8.7096,-8.7085,-8.7247,-8.7221,-8.7178,-8.7097,-8.7249,-8.7311,-8.7336,-8.7004,-8.7002,-8.7,-8.6998,0,0,-8.6519,-8.6608,-8.6638,-8.6678,-8.6749,-8.6822,-8.6927,-8.7013,-8.7063,-8.7124,-8.7211,-8.7331,-8.7291,-8.7337,-8.7331,-8.7403,-8.7556,-8.735,-8.7352,-8.7387,-8.7737,-8.777,-8.7799,-8.7536,-8.754,-8.7544,-8.7732,0,-8.6701,-8.6889,-8.6892,-8.7063,-8.7151,-8.7118,-8.7209,-8.7261,-8.7281,-8.7356,-8.7375,-8.7461,-8.7402,-8.743,-8.75,-8.7523,-8.7626,-8.7509,-8.7614,-8.7618,-8.7601,-8.7832,-8.7866,-8.8041,-8.7756,-8.776,-8.7763,0,-8.6938,-8.7011,-8.7192,-8.7252,-8.7289,-8.7371,-8.7451,-8.7524,-8.7582,-8.7591,-8.7644,-8.7628,-8.7733,-8.7651,-8.7795,-8.7715,-8.7758,-8.7776,-8.7783,-8.7792,-8.77,-8.7847,-8.8097,-8.8123,-8.7802,-8.7799,-8.7796,0,-8.7085,-8.7228,-8.7355,-8.739,-8.7463,-8.7522,-8.7555,-8.7608,-8.766,-8.7729,-8.7762,-8.784,-8.7883,-8.7944,-8.7948,-8.7888,-8.8094,-8.8012,-8.8102,-8.8102,-8.8146,-8.8143,-8.8407,-8.8175,-8.8175,-8.8174,-8.8174,0,-8.7288,-8.74,-8.7422,-8.7501,-8.7625,-8.7626,-8.7748,-8.7775,-8.7824,-8.7905,-8.788,-8.7956,-8.7958,-8.8035,-8.8039,-8.8158,-8.8177,-8.8186,-8.8185,-8.8188,-8.8187,-8.8216,-8.8203,-8.8181,-8.818,-8.8178,-8.8177,0,-8.7473,-8.7493,-8.7629,-8.7688,-8.7706,-8.7795,-8.7844,-8.7917,-8.7935,-8.8038,-8.8062,-8.8088,-8.8178,-8.819,-8.8293,-8.8296,-8.8439,-8.8425,-8.842,-8.8418,-8.8508,-8.8499,-8.8799,-8.8838,-8.8581,-8.8584,-8.8586,0,-8.76,-8.7687,-8.7756,-8.7811,-8.7847,-8.7935,-8.7988,-8.7993,-8.8049,-8.8124,-8.8188,-8.8276,-8.8347,-8.8492,-8.8518,-8.8598,-8.8586,-8.8685,-8.8597,-8.8598,-8.8587,-8.8582,-8.859,-8.8702,-8.8705,-8.8707,-8.8709,0,-8.7825,-8.7832,-8.7912,-8.7996,-8.8062,-8.8127,-8.8189,-8.8234,-8.8246,-8.8311,-8.8404,-8.8459,-8.8567,-8.8655,-8.8733,-8.8764,-8.8739,-8.8737,-8.8762,-8.8765,-8.8759,-8.8763,-8.8466,-8.873,-8.8728,-8.8726,-8.8725,-8.8724,-8.7985,-8.8061,-8.8122,-8.8212,-8.826,-8.8319,-8.8392,-8.842,-8.8499,-8.8589,-8.8586,-8.8689,-8.8745,-8.8849,-8.8885,-8.8964,-8.8931,-8.8967,-8.8976,-8.8985,-8.8994,-8.8747,-8.8978,-8.8978,-8.8977,-8.8977,-8.8976,0,-8.8209,-8.8248,-8.8331,-8.842,-8.8491,-8.8464,-8.8531,-8.8591,-8.8683,-8.8739,-8.8811,-8.8918,-8.9003,-8.9037,-8.912,-8.9177,-8.9167,-8.9198,-8.9193,-8.9201,-8.9019,-8.8989,-8.9205,-8.9205,-8.9204,-8.9204,-8.9204,-8.9204,-8.8333,-8.846,-8.8474,-8.8623,-8.866,-8.8763,-8.8804,-8.8857,-8.8902,-8.9025,-8.9097,-8.912,-8.9167,-8.9253,-8.9329,-8.9337,-8.9368,-8.9405,-8.9407,-8.9237,-8.9214,-8.9192,-8.9163,-8.9412,-8.9412,-8.9582,-8.9584,-8.9585]}]]